Location: Isles
(48.9125°N, 2.8272°E)
Time: 10:18:50
(UTC+00:00)

Gblst 52 Del rocket - Pass Details

Date: 03 February 2023
Orbit: 805 x 1364 km, 51.5° (Epoch: 28 March)

Event Time Altitude Azimuth Distance (km) Brightness Sun altitude
Rises 18:36:28 0° 252° (WSW) 3,417 8.9 -17.8°
Reaches altitude 10° 18:39:00 10° 253° (WSW) 2,439 7.8 -18.2°
Maximum altitude 18:44:37 84° 342° (NNW) 816 4.1 -19.2°
Enters shadow 18:46:58 36° 68° (ENE) 1,263 4.6 -19.6°
